Tracking 19792 objects as of 16-Jul-2019
HD Live streaming from Space Station
objects crossing your sky now

SL-16 DEB

Track SL-16 DEB now!
10-day predictions


NORAD ID: 39874
Int'l Code: 1993-016AY
Perigee: 724.1 km
Apogee: 879.5 km
Inclination: 70.9 °
Period: 100.8 minutes
Semi major axis: 7172 km
RCS: 0.0081 m2 (small)
Launch date: March 26, 1993
Source: Commonwealth of Independent States (former USSR) (CIS)
Launch site: TYURATAM MISSILE AND SPACE COMPLEX (TTMTR)

Note: This is SATELLITE DEBRIS
aabbcc
Your satellite tracking list
Your tracking list is empty




NASA's NSSDC Master Catalog

Two Line Element Set (TLE):
1 39874U 93016AY  19193.04730618  .00001140  00000-0  44053-3 0  9997
2 39874  70.9406  77.7864 0108304 332.5688  91.9776 14.29116999866054
Source of the keplerian elements: AFSPC